Theta_e
311 311 310 307 308 310 311 315 320 319 317 317 318 318 317 315 315 312 313 314 313 314 314 320 351 350 347 345 343 341 337 346 352 351 351 352 353 351 352 352 351 347 349 351
311 311 309 310 309 310 311 312 315 318 318 317 318 317 319 315 314 313 312 313 313 314 313 316 350 348 348 344 342 342 343 349 349 346 350 353 353 350 350 351 351 350 350 350
312 310 309 310 311 311 311 313 314 318 319 319 318 319 317 317 317 314 313 314 313 314 312 315 345 349 345 344 344 345 347 346 341 334 347 352 349 350 350 350 351 350 349 350
314 312 311 310 313 311 312 312 315 317 320 320 319 321 316 318 317 316 314 312 314 313 312 313 344 349 348 343 343 344 344 347 343 349 351 350 349 348 349 348 349 348 348 347
314 313 310 312 313 311 310 311 314 315 319 320 320 319 320 317 317 318 313 313 314 313 312 315 353 351 347 340 340 343 341 347 351 350 346 343 345 342 343 347 347 344 344 344
315 313 313 312 312 312 310 310 311 315 317 324 322 318 318 317 318 317 315 314 314 313 312 328 351 352 349 345 341 339 341 347 342 336 333 334 346 340 337 341 339 337 338 336
317 317 314 313 315 314 314 311 322 324 325 331 323 325 318 318 319 316 315 315 314 314 313 349 350 347 344 340 342 343 344 345 342 343 340 345 346 343 342 340 335 333 331 329
318 320 316 313 314 313 313 317 324 333 332 326 325 328 324 317 318 316 315 315 315 313 330 351 349 347 344 340 341 344 346 346 346 347 346 346 343 343 340 336 334 329 326 323
320 322 316 311 313 313 316 316 316 323 321 326 326 324 323 318 317 316 316 315 315 316 350 350 347 346 338 333 342 340 337 334 338 337 337 339 342 343 341 332 327 323 320 319
318 322 316 312 313 314 312 313 319 320 331 331 327 326 324 320 319 317 314 317 339 346 346 345 343 341 338 336 334 332 332 329 327 328 329 327 327 329 327 322 320 319 318 317
317 319 314 312 316 317 317 321 321 319 325 329 328 325 335 331 319 316 333 340 344 342 342 340 336 335 334 330 328 327 327 324 323 323 323 323 322 321 320 318 317 316 316 316
315 321 319 313 314 315 315 318 319 323 325 328 326 336 333 332 328 340 342 340 339 338 337 336 334 330 327 326 325 323 322 322 321 320 320 319 318 317 316 316 316 316 316 316
316 321 316 318 318 317 318 318 319 324 324 329 330 338 333 336 341 340 339 338 336 335 333 331 329 326 324 323 322 321 321 320 319 318 317 316 316 315 315 315 316 316 316 316
316 319 320 317 322 319 320 318 320 326 326 330 335 339 337 340 343 340 338 336 334 331 329 327 325 323 322 321 320 319 318 319 318 316 315 315 315 315 315 316 316 316 316 315
318 320 319 320 320 321 318 318 323 325 327 330 335 338 335 335 336 337 333 331 329 327 325 323 321 318 318 318 318 317 316 316 315 315 314 314 314 315 316 315 315 314 315 314
317 321 320 320 322 320 320 320 322 324 326 325 334 338 333 332 331 331 329 326 322 319 317 315 315 314 314 314 314 313 314 314 314 314 313 313 314 315 314 313 313 312 313 311
317 321 322 318 322 322 322 325 322 325 327 329 335 334 331 330 328 325 322 319 318 316 315 314 313 312 311 311 311 310 311 312 313 312 313 313 313 312 312 312 313 312 312 311
319 320 321 321 318 317 324 319 323 323 328 330 331 330 328 324 321 318 316 315 314 313 312 311 310 309 309 309 309 310 310 310 310 310 310 310 310 310 310 311 312 313 312 310
319 322 323 319 323 326 323 316 319 323 333 330 328 326 321 317 315 314 313 312 312 311 309 309 308 307 307 308 308 309 309 309 309 308 308 308 309 309 309 309 311 312 312 309
312 316 324 319 324 326 318 311 310 314 333 328 324 321 319 321 317 314 311 310 309 308 308 307 307 306 306 306 308 308 308 308 307 307 307 308 308 308 308 308 309 311 310 309
309 309 316 323 324 320 309 306 309 327 329 325 321 320 319 317 313 310 308 308 306 305 305 305 304 303 304 306 306 305 305 305 305 306 307 307 307 307 308 307 308 309 307 307
306 308 308 311 320 321 305 309 324 321 323 321 315 312 311 309 308 307 308 306 305 304 303 302 301 301 302 304 304 303 303 303 304 304 304 305 305 306 306 306 306 307 305 304
306 303 306 306 306 303 302 303 305 315 316 312 311 308 307 306 305 305 304 303 303 302 301 300 299 299 300 301 302 301 301 302 302 302 302 302 303 303 302 303 301 302 300 299
300 301 305 308 304 301 304 311 311 311 310 309 308 308 306 305 305 304 304 303 302 301 300 299 298 297 297 298 299 299 299 300 300 300 299 300 300 300 299 299 299 299 298 296
299 300 301 302 301 302 302 307 306 305 305 305 305 305 305 303 302 302 301 301 301 300 299 298 297 296 296 296 297 297 297 298 297 298 298 298 298 297 297 297 297 297 295 294
299 299 300 300 298 300 299 301 306 305 304 304 304 302 301 301 301 301 300 300 299 299 298 297 297 296 295 295 295 295 295 295 295 296 296 296 297 297 297 297 297 297 296 294
Wind_Speed
4 3 10 16 12 13 16 16 17 10 12 11 23 13 11 8 6 8 8 8 9 10 6 19 29 35 38 40 48 50 40 30 33 30 28 29 25 25 20 20 26 29 25 20
3 15 14 13 14 15 16 20 20 15 15 13 17 10 16 9 7 8 10 9 11 8 7 6 24 28 34 38 40 39 37 36 41 32 26 11 22 18 16 15 18 26 18 17
13 13 10 16 16 18 19 16 13 13 16 19 7 15 9 15 12 7 8 11 12 13 9 7 15 27 29 27 32 35 42 41 40 33 30 17 22 22 18 19 21 19 18 18
9 17 20 17 17 17 16 12 13 17 12 10 16 11 9 16 16 12 10 10 14 9 9 7 14 19 28 28 31 35 38 38 35 34 31 28 21 13 11 21 20 17 16 16
8 4 12 17 16 16 13 13 17 15 16 10 12 9 15 10 11 20 13 12 14 11 12 9 16 25 29 35 40 41 40 37 40 38 32 19 17 20 13 17 22 16 12 10
19 14 10 8 9 12 11 14 17 15 12 11 15 7 7 9 21 16 8 10 12 10 11 10 20 27 27 32 34 38 38 40 32 26 27 21 31 31 19 22 24 25 22 19
7 21 16 15 3 8 6 12 3 5 6 5 6 1 8 17 19 11 11 11 11 13 9 16 19 17 27 28 32 28 29 27 29 26 27 29 28 30 30 27 26 24 22 19
4 3 14 17 9 7 10 7 2 4 5 4 4 6 7 12 15 12 11 13 11 10 11 17 19 20 29 28 31 25 24 19 16 20 20 24 26 25 23 24 25 20 19 18
4 5 7 13 11 6 6 8 4 4 3 4 7 5 5 6 8 10 12 11 12 12 16 19 16 21 25 25 22 25 25 26 22 22 23 26 26 25 23 25 24 24 19 18
3 7 3 12 12 9 6 13 4 3 3 3 5 4 4 9 10 13 10 10 16 21 20 18 18 23 25 28 32 34 33 31 29 30 30 28 31 30 33 27 25 22 20 17
8 3 4 9 5 8 4 4 3 3 3 3 5 5 6 8 9 11 12 16 23 23 20 20 19 26 32 32 34 36 36 33 32 34 37 32 31 29 28 25 23 20 19 16
4 3 3 5 2 10 5 8 9 4 4 3 2 2 11 9 18 22 21 22 24 25 22 20 22 28 30 30 30 34 32 32 32 32 34 31 30 28 26 23 20 18 18 14
3 1 3 4 6 5 2 10 5 4 3 2 2 1 9 7 17 23 26 25 25 25 25 22 21 17 26 29 31 30 32 34 33 33 31 28 27 26 25 22 19 17 16 17
5 1 2 2 3 5 7 12 5 6 3 5 3 10 9 11 17 18 23 23 25 23 24 22 19 17 25 27 30 29 30 35 30 29 27 25 23 22 22 22 22 20 17 16
3 2 3 5 11 10 12 15 7 7 8 1 3 9 5 6 12 18 23 25 26 24 22 20 18 16 23 27 27 28 33 32 28 27 25 22 20 20 23 23 21 18 16 15
1 2 1 2 2 7 16 12 3 5 11 7 4 6 2 7 17 19 22 24 24 22 22 21 20 19 23 26 26 29 34 28 26 25 22 19 20 24 22 19 17 15 14 13
3 1 1 1 1 7 7 4 8 5 2 9 12 5 5 16 17 17 20 22 23 22 20 20 19 20 23 25 28 31 34 30 28 24 23 24 22 20 17 15 14 13 13 11
2 4 1 1 4 6 3 10 5 6 7 10 17 15 11 18 19 19 17 25 23 20 19 17 19 23 25 30 34 38 35 31 28 26 23 21 19 16 14 14 12 12 13 12
2 2 2 4 4 6 4 8 6 4 4 16 22 17 22 22 26 18 14 20 21 19 15 20 26 29 33 33 35 33 30 28 25 22 19 16 15 14 12 11 11 11 13 11
14 8 0 3 4 3 3 10 7 10 4 12 23 24 21 21 14 7 10 17 20 25 23 24 32 33 35 32 33 31 27 24 22 19 15 13 13 12 10 8 8 10 10 10
6 5 5 3 4 3 4 17 11 4 4 10 19 17 14 14 12 15 14 17 26 25 26 32 37 29 27 31 31 30 26 22 19 18 17 14 13 10 8 8 6 9 8 10
5 5 4 5 3 4 13 14 2 1 11 15 16 19 24 22 19 18 16 15 18 22 26 32 30 27 28 27 27 24 21 16 15 15 15 15 13 11 10 10 11 10 15 13
4 3 3 4 2 8 14 17 15 9 17 17 23 17 25 21 18 17 15 15 16 24 27 28 27 28 26 24 23 21 16 15 14 16 16 14 11 11 11 11 12 15 12 11
7 5 3 2 8 14 17 15 15 20 18 17 17 19 17 23 18 18 16 13 18 23 24 24 26 23 21 19 20 19 16 14 13 14 15 14 14 12 13 15 15 16 15 13
3 8 7 2 6 10 20 15 18 22 22 20 18 17 16 20 17 17 16 15 20 21 22 25 23 20 19 17 18 15 13 10 13 15 14 13 12 12 13 13 14 14 15 14
5 4 4 3 7 2 6 12 12 20 18 16 19 20 18 19 15 20 14 20 19 20 24 24 23 21 18 17 15 12 9 10 13 15 13 12 12 12 9 10 9 9 8 8
Wind_Direction
200 188 229 246 227 234 245 263 258 265 219 210 238 235 233 225 182 205 198 191 210 184 165 138 143 156 157 161 168 178 181 190 182 170 178 180 166 168 178 200 216 205 198 194
339 249 246 245 240 243 261 247 258 291 241 216 231 241 212 216 210 192 194 199 208 194 131 163 143 151 163 165 173 173 183 184 184 188 195 197 173 166 173 181 192 197 204 188
216 232 251 225 233 238 242 249 249 255 283 236 220 238 216 216 202 197 213 189 201 196 162 192 151 157 161 161 173 175 180 188 193 203 197 213 203 183 172 182 190 198 199 185
239 244 242 234 237 213 241 249 272 247 268 248 209 224 218 199 207 200 204 199 209 174 171 190 146 150 157 162 173 175 181 192 196 204 209 193 215 204 169 181 187 187 155 147
223 307 218 224 225 212 231 248 262 292 250 269 220 198 224 185 198 211 203 203 210 181 179 165 145 157 159 154 167 179 182 189 199 208 202 186 229 216 237 187 150 145 138 125
250 259 270 259 211 221 192 227 258 259 273 229 240 172 205 182 202 205 192 199 196 179 193 131 147 149 149 156 169 181 185 196 220 225 218 200 188 230 217 163 135 127 126 121
253 236 235 225 176 215 189 177 219 191 217 216 240 337 225 207 211 175 172 194 196 186 147 135 134 142 141 152 158 162 175 190 200 204 203 203 171 182 175 151 138 129 119 112
284 289 209 200 194 167 184 131 231 165 156 176 178 210 238 212 197 172 167 181 185 160 129 142 146 144 141 147 152 156 168 148 142 158 173 171 172 161 134 143 136 124 113 104
301 270 232 182 167 166 147 150 191 301 229 97 161 286 308 193 158 155 178 158 178 107 130 134 132 132 133 121 109 109 105 94 118 123 127 127 131 137 137 135 126 114 111 102
241 290 222 161 161 190 161 147 154 225 205 116 160 189 220 182 176 175 150 136 106 117 120 120 117 111 100 99 100 100 99 94 102 110 113 111 115 121 120 121 112 110 106 102
270 252 111 135 173 155 135 106 127 265 222 153 132 221 350 282 169 151 117 119 120 123 115 112 111 108 108 104 102 100 102 100 96 101 106 108 109 114 113 109 109 108 104 98
302 336 254 185 62 155 165 160 148 154 278 341 172 295 332 311 135 125 125 120 118 117 114 111 107 107 104 105 104 102 104 102 103 104 109 110 109 109 108 105 103 99 96 94
349 331 343 76 19 344 208 156 157 207 84 235 104 156 340 53 118 124 124 119 116 114 106 105 102 105 106 105 104 106 107 108 110 110 109 108 106 105 103 101 102 99 101 100
215 252 239 201 111 183 167 163 260 139 121 313 26 124 62 85 116 118 113 111 112 107 108 107 106 106 106 108 106 104 106 110 111 108 105 103 103 104 103 100 102 100 96 91
178 267 232 223 219 255 152 158 260 129 139 57 123 111 71 72 98 114 111 109 106 106 105 106 105 105 104 102 103 108 108 110 110 107 104 103 106 104 103 102 97 95 95 91
335 257 320 31 135 109 123 155 178 89 97 248 155 86 341 98 108 106 104 107 102 100 101 101 101 99 100 106 110 108 106 108 112 109 104 103 105 108 102 97 92 95 98 93
217 280 6 309 314 89 76 6 152 64 153 183 152 135 114 102 96 102 105 99 100 100 101 99 98 99 102 105 107 100 102 100 103 103 100 105 105 103 102 102 100 104 105 99
249 176 72 149 54 62 63 357 87 119 256 99 98 98 95 99 94 89 95 106 99 98 96 96 97 92 95 98 98 99 100 98 99 100 104 106 105 101 102 100 94 111 114 98
147 359 106 104 73 126 42 18 12 24 77 128 115 105 110 105 82 64 87 93 98 92 88 92 92 91 89 92 97 97 97 100 98 96 96 97 99 98 94 94 94 114 115 98
4 6 44 88 82 103 62 322 322 282 38 135 127 130 137 129 103 107 91 97 93 88 88 91 87 85 88 89 97 95 96 97 95 94 90 98 96 88 88 84 89 109 113 105
345 358 22 30 100 42 359 316 298 133 166 139 129 134 123 109 108 119 104 87 84 88 89 84 77 76 82 93 94 87 93 90 96 94 86 91 89 91 85 85 84 107 121 117
12 333 11 341 63 94 351 327 140 246 116 121 103 106 104 109 111 109 107 95 93 94 85 83 82 76 84 87 90 87 88 93 92 91 87 81 80 81 88 97 91 99 112 97
30 16 351 19 354 288 284 248 264 120 107 115 114 118 117 114 105 101 98 90 89 88 86 85 86 80 79 79 85 83 94 97 95 89 80 80 83 82 86 91 91 96 88 79
339 5 28 263 332 340 3 58 82 87 94 100 108 115 110 109 108 104 101 99 86 83 85 88 85 82 78 81 79 88 95 97 98 94 84 79 79 81 84 81 78 74 62 53
329 323 326 35 339 339 15 28 75 77 80 82 81 91 98 102 98 100 94 91 95 97 96 97 96 93 86 83 82 87 91 97 92 91 91 84 82 84 85 79 74 75 69 55
360 339 4 23 331 19 8 21 76 88 85 85 87 83 77 84 93 94 90 90 93 104 114 111 109 106 97 89 85 86 94 102 98 93 88 86 92 90 94 83 78 76 73 57